Theta_e
328 326 328 325 323 324 319 318 303 309 307 300 300 302 300 306 306 307 307 309 309 312 314 313 321 318 315 314 316 317 317 315 317 310 311 325 336 338 340 340 342 342 340 339 338 341 344 345 346 346 346 345 343 343 343 343 342 342 341 340 340 340 340 341 340 338 339 342 341 341 342 341 340 340 339 338 338 340 342 343 343 343 343 343 343 343 343 343 344 345 345 345 345 344 344 344 343
325 325 327 326 322 319 313 312 306 302 303 299 300 302 303 305 305 307 307 310 310 311 313 318 321 320 318 320 320 320 319 321 321 322 327 333 337 338 341 341 341 340 339 338 338 340 343 345 346 346 346 345 343 342 342 342 341 341 341 342 342 345 344 342 340 339 339 340 340 340 340 340 341 342 342 341 340 340 340 344 344 343 343 344 344 344 343 345 344 345 345 345 344 344 343 343 343
325 324 324 324 321 317 313 312 301 300 298 296 299 302 303 304 305 308 310 310 312 315 317 319 320 318 315 315 314 314 318 325 324 328 329 335 331 334 340 342 342 341 338 338 339 339 341 342 343 346 345 344 343 341 341 341 341 340 342 342 345 346 346 344 341 339 337 339 340 338 338 340 340 338 339 339 340 338 342 343 342 342 343 343 344 344 345 345 344 344 344 344 344 343 343 342 341
327 325 324 320 312 317 307 308 304 300 298 298 299 302 303 305 307 310 309 314 316 316 317 316 316 320 316 311 314 318 321 322 328 329 327 330 333 338 340 341 342 340 339 339 339 339 338 341 341 347 345 344 344 341 341 341 340 339 341 343 344 345 344 343 340 339 339 340 338 340 339 336 339 340 339 337 337 338 339 341 341 341 341 344 345 345 345 345 344 344 344 343 343 343 342 342 340
327 326 323 320 314 308 309 305 303 302 297 299 298 302 303 306 309 309 310 316 315 313 315 317 317 320 321 320 318 316 321 327 328 332 331 335 340 340 340 342 341 338 337 338 338 339 340 340 342 342 345 343 343 341 340 340 339 342 344 344 343 342 342 342 340 338 336 337 337 336 335 340 340 339 340 339 338 338 339 341 342 342 342 342 343 344 344 344 343 343 342 342 342 342 341 341 339
323 324 324 321 311 314 308 304 301 300 302 303 300 302 304 307 309 309 312 315 314 313 312 316 315 316 315 323 324 318 327 321 330 331 333 335 339 341 341 342 339 336 336 338 337 337 339 339 340 341 342 342 343 342 340 340 340 343 343 342 342 341 340 340 340 339 339 342 342 342 343 341 341 341 341 341 339 339 339 339 340 341 341 341 340 342 342 342 342 342 341 342 342 341 341 339 338
320 317 318 315 312 314 303 300 300 301 303 303 302 303 304 306 309 311 311 311 314 313 311 313 315 317 312 321 322 327 331 330 330 331 336 339 342 341 340 339 339 335 336 337 337 338 341 338 342 343 345 345 344 342 340 340 340 340 340 340 340 341 341 342 341 339 340 343 343 343 342 342 341 341 341 341 341 341 341 340 341 342 342 342 342 343 343 343 342 342 341 341 341 341 340 338 337
322 314 314 308 306 308 302 301 301 303 302 302 303 303 304 306 309 312 311 310 308 310 310 312 317 314 315 320 319 328 330 332 334 337 339 339 341 340 341 339 337 335 336 337 337 338 341 338 343 345 345 344 344 342 340 339 339 339 340 339 338 339 341 342 341 339 340 342 340 341 343 342 341 340 340 339 339 340 340 339 341 342 341 341 340 341 341 341 341 341 342 341 341 340 339 338 336
317 314 314 310 304 306 302 300 301 302 303 302 303 303 307 306 310 312 310 310 307 308 311 314 315 308 316 316 320 326 329 333 335 337 339 339 339 340 339 338 335 334 336 336 337 339 339 338 340 344 344 345 344 344 341 339 339 339 338 337 338 340 341 342 340 338 337 338 338 338 338 337 338 337 338 338 338 337 338 338 340 340 341 340 341 340 340 340 341 340 341 341 340 339 338 337 336
314 314 307 307 307 302 301 301 300 302 303 304 303 303 304 305 308 313 311 308 308 309 314 317 313 307 315 313 320 326 329 334 336 336 338 339 339 339 338 338 337 335 335 336 336 337 339 341 336 340 342 344 345 346 345 342 339 338 338 338 343 344 343 342 339 337 336 338 337 337 337 337 337 337 338 338 338 338 338 338 338 338 339 340 339 339 340 339 340 340 340 339 338 338 337 336 335
306 311 313 306 302 301 301 300 300 302 302 303 303 304 305 307 310 310 312 309 309 310 312 314 310 309 315 317 322 327 330 334 334 333 337 338 339 338 337 338 338 336 334 337 337 338 338 341 339 338 341 341 344 345 346 344 339 338 338 337 339 343 342 341 339 337 336 336 337 337 337 337 337 337 337 337 337 337 337 337 337 337 340 341 340 340 339 339 339 339 339 339 338 338 337 337 335
306 308 310 303 302 302 302 302 300 301 303 303 305 304 305 308 310 308 308 306 308 309 312 313 310 317 313 315 320 327 331 333 334 335 338 339 337 338 338 337 338 336 337 337 338 336 338 342 341 341 336 338 340 342 343 342 342 340 340 338 337 340 340 338 337 336 336 337 337 337 337 337 336 336 337 337 340 337 336 336 336 337 338 339 339 339 339 338 338 339 338 337 337 336 336 336 335
309 310 306 303 302 302 301 299 301 301 302 303 306 305 307 308 308 310 309 309 309 309 310 314 319 318 307 314 321 326 328 333 335 337 338 338 338 339 338 336 336 336 337 338 337 337 340 339 340 341 339 333 335 336 338 339 340 341 341 341 341 340 340 341 341 339 337 337 337 337 337 337 337 338 338 338 339 338 336 337 337 336 336 336 338 338 338 338 338 338 337 336 336 336 335 335 334
311 311 307 303 301 300 300 302 301 299 301 303 304 304 307 307 310 309 310 307 308 308 311 316 318 316 313 316 317 323 328 335 335 338 339 339 338 338 337 336 336 335 337 337 335 336 337 339 339 340 343 343 344 339 334 336 338 340 339 339 340 341 343 343 343 342 342 341 339 338 338 339 339 338 337 337 337 337 337 337 338 336 336 335 336 337 337 337 337 337 336 336 335 335 334 334 333
311 311 307 305 301 300 300 300 302 300 300 303 302 305 305 307 305 307 309 307 309 310 313 318 322 310 305 308 313 323 330 334 335 338 338 338 338 337 336 335 334 336 335 334 335 334 335 338 338 339 341 342 342 342 343 342 333 336 337 337 338 339 339 339 339 338 338 338 338 338 337 336 334 334 335 335 335 335 334 332 335 337 335 335 335 336 336 336 335 334 334 333 333 333 333 332 331
313 311 307 303 300 300 301 300 298 300 301 302 301 302 307 305 304 307 308 308 309 309 313 312 317 311 314 309 316 326 333 334 336 337 337 336 336 335 335 334 333 332 334 334 333 335 335 335 337 337 340 341 341 341 342 342 334 331 333 334 335 336 336 335 335 334 332 333 333 333 331 334 331 334 328 334 330 332 331 332 332 334 334 335 335 335 335 335 336 335 333 331 331 331 331 330 329
313 313 302 302 299 299 302 301 301 300 302 302 300 303 306 306 304 305 305 307 308 308 311 316 317 318 316 315 322 323 334 335 334 335 335 333 333 332 333 331 331 331 331 333 333 333 336 334 334 337 338 339 340 340 341 341 340 329 330 329 330 332 333 331 330 325 324 324 328 326 329 337 336 334 335 336 329 336 324 326 331 335 335 334 333 334 334 334 335 334 333 331 329 327 325 323 324
311 307 304 299 302 300 304 302 303 303 302 301 300 303 307 305 304 306 308 308 310 310 311 315 315 317 321 324 323 324 333 333 334 332 331 330 331 329 329 329 329 329 329 330 332 332 333 334 333 333 337 339 339 339 340 340 340 336 339 338 338 335 329 327 334 339 336 340 325 334 338 337 336 336 335 335 335 335 333 324 329 333 335 334 334 334 333 334 334 332 331 330 328 325 322 333 329
309 307 305 302 302 304 305 304 303 302 301 302 301 301 305 307 307 306 305 305 307 307 310 312 314 317 320 321 322 323 332 332 332 331 330 329 329 328 328 329 329 329 329 329 330 331 332 333 334 332 334 337 338 338 338 338 339 338 338 338 338 333 336 338 338 336 338 338 338 338 335 336 336 336 336 335 336 326 333 324 327 330 331 331 333 333 333 333 332 330 328 328 326 322 334 332 332
305 307 304 306 307 304 304 303 304 303 302 302 301 300 302 305 306 307 305 305 306 305 307 309 310 313 318 322 322 325 330 331 331 330 330 330 330 329 329 329 328 329 330 330 330 332 332 332 334 334 333 335 337 337 338 338 338 338 337 336 335 335 337 337 338 337 337 337 337 337 335 337 337 336 329 327 332 335 331 321 321 322 322 323 325 331 326 326 326 325 323 321 327 329 331 329 329
303 304 304 306 305 303 303 303 303 302 301 301 301 299 300 302 305 306 305 304 305 307 309 309 309 312 320 323 324 325 328 330 330 330 330 330 330 331 330 330 329 330 332 333 332 331 331 332 333 334 334 334 336 335 335 336 337 337 336 335 335 334 335 336 336 337 337 337 336 335 337 337 337 336 335 335 335 335 335 334 333 334 334 334 325 333 333 332 330 332 331 328 331 331 331 330 330
303 300 302 303 303 302 301 303 301 300 298 301 299 301 302 302 302 304 305 303 305 308 310 311 311 314 322 322 324 326 327 328 329 329 329 329 330 330 331 331 332 332 332 331 331 331 332 332 333 333 333 333 334 334 335 334 335 334 334 334 334 334 336 335 335 335 335 336 335 335 335 336 335 334 334 334 333 333 334 334 334 334 334 333 332 332 331 331 330 329 329 329 329 329 329 329 329
301 299 300 302 302 302 301 301 299 299 301 300 301 301 302 302 302 304 305 305 305 305 305 308 311 313 322 325 325 325 326 327 329 329 329 329 330 330 331 331 331 330 331 331 333 332 332 331 333 333 332 332 332 333 332 333 332 334 333 334 333 333 334 334 333 334 335 336 336 335 334 333 333 333 332 332 332 333 334 334 333 333 333 333 332 332 332 331 329 328 328 327 327 328 329 330 330
304 301 300 300 301 301 301 301 298 299 299 300 300 300 301 301 301 302 302 306 307 308 310 309 305 318 324 324 325 326 326 327 329 330 330 330 330 330 331 331 332 333 333 332 333 333 332 331 332 333 332 332 332 332 332 332 332 332 333 333 333 331 332 333 333 334 335 334 335 334 332 334 333 332 332 331 331 333 333 334 334 332 333 332 332 332 331 330 330 330 331 331 330 331 330 331 331
302 300 300 299 300 301 301 300 299 298 299 300 299 299 301 302 301 299 302 306 307 306 314 312 311 319 322 323 324 326 327 329 330 331 331 332 332 332 332 332 332 333 332 332 333 333 333 332 332 331 331 331 332 332 331 332 332 332 332 331 331 330 332 333 334 335 334 332 334 334 334 333 333 333 333 332 333 333 333 333 333 332 333 333 332 332 331 331 331 331 331 331 331 331 331 331 331
305 302 303 302 302 303 303 300 299 299 300 298 299 300 301 300 299 299 304 305 306 314 318 317 318 318 321 323 324 326 326 328 330 329 329 331 331 330 331 331 331 332 333 333 333 333 334 334 332 331 331 331 332 332 332 331 331 331 331 331 333 332 331 332 333 332 333 333 333 334 333 333 333 332 333 333 332 332 332 333 333 333 332 333 332 332 331 331 331 331 331 331 331 331 331 331 330
309 304 303 302 303 303 302 303 302 299 300 299 300 301 300 298 299 301 303 302 304 311 316 318 318 317 320 322 324 325 326 327 328 330 328 329 330 330 331 332 331 331 334 333 333 334 335 334 333 332 332 332 333 331 332 331 332 331 331 331 332 331 332 332 331 331 331 332 333 334 334 333 332 333 332 332 331 332 332 332 332 333 332 333 332 332 333 333 332 331 332 331 330 330 330 331 330
308 307 303 304 305 305 304 303 304 301 301 298 301 300 299 299 299 301 304 303 304 308 313 316 317 317 320 322 323 325 326 327 329 329 327 327 327 329 329 330 331 332 332 333 334 335 335 334 334 334 333 333 331 331 332 332 331 331 332 332 332 332 332 332 332 332 329 331 332 334 333 333 332 332 332 332 332 331 331 331 332 332 333 333 333 332 332 333 333 333 333 333 332 330 329 330 331
304 306 304 302 302 305 307 305 306 303 304 298 300 299 298 296 296 302 303 306 305 307 310 314 316 318 320 322 323 324 325 326 327 327 328 329 330 331 330 331 332 331 333 334 334 335 334 335 334 334 334 333 332 331 331 332 332 332 332 332 332 332 331 331 332 332 332 332 332 332 333 333 332 331 331 332 331 331 331 332 332 332 333 333 333 333 333 333 332 332 332 332 331 330 329 329 332
303 304 305 302 303 301 306 305 300 301 304 298 300 296 302 299 299 302 300 305 305 305 307 311 314 316 317 320 321 323 325 326 326 327 328 329 330 330 329 331 332 332 332 334 334 333 334 335 335 335 335 334 333 332 332 332 332 332 332 332 333 332 330 330 331 332 332 331 332 332 332 334 332 331 332 332 331 330 332 332 333 333 333 335 333 332 331 330 330 331 331 330 326 328 326 328 327
303 300 303 303 301 302 300 301 301 302 301 298 301 297 300 300 301 303 304 304 304 303 305 308 312 313 315 318 320 321 323 325 325 327 329 330 330 330 330 331 332 332 333 333 333 333 334 334 334 334 334 335 334 333 332 333 333 333 332 332 332 332 332 331 331 332 332 332 332 331 332 332 333 332 333 331 331 331 332 332 333 333 334 333 331 331 331 330 330 329 329 328 328 327 327 327 327
302 300 299 301 300 303 300 299 301 304 298 300 301 297 299 302 303 300 299 303 304 303 304 306 310 312 313 316 318 320 322 324 325 327 328 329 330 330 330 331 332 331 331 332 333 334 333 334 335 334 335 334 335 333 334 333 333 334 334 329 333 333 332 332 332 332 333 332 332 332 332 333 333 333 333 331 331 332 332 332 332 333 333 332 331 331 331 329 329 330 330 329 327 327 328 327 327
299 300 301 297 299 302 301 300 300 301 299 299 301 300 295 297 300 299 298 301 303 303 304 304 305 308 312 314 317 319 321 322 324 325 327 328 329 330 330 331 331 331 332 332 332 333 333 333 333 333 333 334 334 334 334 334 334 334 334 333 333 333 332 332 333 333 333 332 332 332 333 333 333 334 333 332 330 332 332 332 332 333 333 332 331 331 330 330 329 330 329 330 330 327 327 327 327
297 300 299 298 296 299 298 299 298 300 301 298 298 297 301 301 299 299 299 300 301 301 302 303 304 304 307 312 315 317 318 320 320 323 325 327 328 330 331 328 331 332 332 332 332 332 332 333 333 333 333 333 334 334 334 334 334 334 334 334 333 333 333 333 334 334 333 332 332 332 333 333 333 334 334 332 331 331 332 332 332 332 333 332 331 331 329 330 330 329 328 329 328 327 326 326 325
298 296 296 295 295 296 300 299 298 298 298 299 299 297 301 303 303 302 300 301 301 301 302 303 303 304 305 307 310 314 316 318 320 323 325 326 327 329 330 331 331 332 331 332 332 332 332 332 332 332 331 332 333 334 334 335 334 334 334 334 334 334 333 334 334 334 333 333 332 332 333 334 332 334 334 333 332 331 331 331 332 333 332 331 331 330 330 331 330 330 328 327 329 328 327 326 326
301 299 300 299 295 295 296 300 296 298 296 297 298 296 298 299 299 302 301 299 300 301 302 302 302 303 303 304 307 310 313 315 319 322 325 326 327 328 329 330 330 330 330 330 330 332 331 331 332 332 331 331 332 332 333 333 333 332 331 333 333 333 333 331 333 333 334 333 333 332 333 335 335 333 334 334 333 332 332 332 332 333 332 331 331 330 329 329 329 329 329 327 327 327 328 327 327
302 301 299 298 298 299 297 296 296 296 296 296 298 298 299 300 301 302 304 300 298 299 300 301 302 303 303 303 304 307 309 311 318 320 322 323 325 326 328 329 329 329 329 329 329 330 331 331 330 330 331 331 330 330 331 331 329 330 331 331 330 332 332 332 332 332 333 334 333 332 332 333 336 334 333 334 332 330 332 333 333 333 333 331 329 329 330 330 330 330 328 328 327 325 325 327 327
300 299 298 298 298 298 299 298 296 296 294 298 295 295 296 297 299 301 301 299 297 298 300 302 302 303 303 304 304 305 306 309 310 311 312 318 321 324 326 327 325 326 327 328 328 329 330 331 330 331 331 331 330 331 331 331 332 331 331 331 332 332 331 330 330 331 333 334 334 333 332 333 334 334 332 334 333 333 332 332 333 333 333 331 330 331 331 327 330 330 329 327 328 325 324 327 326
299 299 298 297 297 299 297 296 296 296 294 297 294 294 296 298 299 300 300 299 300 300 300 301 302 303 303 303 304 305 305 304 305 306 309 312 317 321 324 325 326 327 327 327 329 330 330 330 330 331 332 332 331 332 331 331 332 333 333 333 333 333 335 334 333 333 333 333 333 333 333 333 333 332 333 332 332 333 333 332 333 334 333 330 329 330 331 330 330 329 329 326 324 325 325 326 325
298 297 296 295 299 295 295 296 295 294 294 294 294 293 296 299 300 299 301 300 300 301 301 301 302 302 303 304 305 305 304 305 305 307 306 307 311 316 320 323 325 326 326 327 328 329 329 329 330 331 331 332 332 332 330 333 333 334 335 335 335 334 332 333 334 334 333 332 332 333 334 335 334 333 333 332 331 333 334 332 334 334 333 332 331 330 329 329 329 328 328 327 326 323 323 323 325
298 298 298 298 294 296 296 294 294 293 293 293 294 295 297 300 299 301 301 302 300 300 299 299 300 301 302 305 306 305 303 303 306 306 307 306 307 310 316 320 323 324 326 327 327 328 328 329 330 331 331 332 332 331 331 332 333 333 333 334 334 334 334 333 331 331 332 331 331 332 333 334 335 334 333 333 331 331 334 334 334 334 333 333 332 330 329 329 329 329 328 326 325 324 322 323 320
295 297 299 299 297 295 293 294 293 293 294 294 294 291 294 299 298 299 303 299 298 299 298 299 300 300 300 299 301 303 305 304 303 304 307 309 306 307 311 316 319 322 324 326 328 328 329 329 330 331 331 332 332 332 332 331 330 330 329 329 326 327 326 326 326 328 329 329 329 332 333 333 333 333 333 333 332 329 332 334 335 334 333 333 332 331 330 330 330 329 328 327 325 327 325 323 319
294 295 298 298 296 295 294 294 295 292 290 292 292 290 290 297 295 297 297 297 298 300 298 299 299 299 299 299 301 301 303 303 304 303 304 305 307 307 307 310 315 318 321 325 327 328 329 329 330 331 331 331 332 332 333 330 330 329 329 328 329 327 326 327 329 331 331 331 332 332 331 331 332 332 332 333 333 331 332 335 334 333 332 332 331 331 330 329 329 330 330 329 328 327 326 321 319
294 298 297 296 295 294 294 295 295 295 293 294 290 292 287 288 295 299 299 298 298 299 300 301 300 300 299 300 301 302 302 302 303 304 304 305 305 306 305 307 311 314 318 322 324 326 327 328 329 329 330 330 331 332 331 330 329 329 328 328 328 328 328 328 329 330 331 331 331 331 330 330 331 332 332 333 333 332 331 332 334 333 332 331 331 331 329 330 330 331 329 329 328 327 323 321 320
296 296 297 295 296 296 295 295 292 292 290 290 290 293 288 288 294 293 295 295 297 298 299 301 302 303 302 302 302 303 303 303 303 304 303 305 305 305 305 306 308 311 315 318 319 322 325 327 328 329 329 329 330 331 330 330 328 329 328 328 327 327 329 329 330 330 329 330 329 329 329 330 330 330 332 332 332 332 330 331 332 332 332 331 328 330 330 330 329 328 327 325 324 323 323 323 322
295 296 298 296 297 296 295 293 292 291 288 286 290 291 287 290 296 296 293 294 295 298 300 302 303 304 304 303 303 304 303 303 302 301 302 303 305 306 306 305 305 306 310 315 318 320 322 324 325 326 327 328 329 330 329 330 329 327 327 327 327 327 327 328 329 329 329 329 327 328 328 328 328 328 329 330 330 331 330 330 331 331 330 330 326 330 330 329 329 328 326 325 323 322 322 322 322
297 297 295 295 295 294 293 293 291 289 284 287 292 291 290 286 293 295 295 294 297 299 300 301 303 304 304 304 304 304 301 301 301 302 302 302 302 302 302 301 303 304 307 309 312 316 319 321 322 323 325 327 328 328 328 327 327 327 326 327 327 327 327 327 326 327 327 327 326 326 327 327 328 327 328 328 329 330 331 331 330 330 330 325 325 328 327 326 326 326 325 325 324 323 322 322 321
298 294 294 293 291 292 291 289 291 285 285 287 289 290 291 284 290 295 298 297 295 296 297 300 301 303 304 304 301 300 299 300 301 300 302 302 301 301 301 300 301 302 303 304 308 313 316 318 320 321 323 325 327 327 327 326 326 326 326 327 327 327 327 326 325 325 325 324 325 325 326 326 326 327 327 326 327 328 328 329 330 330 329 328 327 327 326 327 326 325 324 323 323 323 323 321 320
296 294 293 289 285 287 284 286 283 284 285 285 287 287 286 286 293 296 296 296 297 298 298 299 301 302 303 301 301 302 305 305 303 303 304 304 303 304 303 303 303 303 302 303 305 308 312 315 318 318 320 323 325 326 325 325 326 326 326 326 326 326 327 327 326 326 326 325 324 325 325 324 324 323 324 323 325 325 325 325 325 324 324 325 326 326 325 325 323 322 322 321 320 319 319 320 319
293 292 291 288 284 282 282 284 284 284 287 287 287 289 284 291 294 298 297 300 301 301 301 301 300 300 301 302 303 302 304 303 305 305 304 304 303 304 303 303 303 304 303 303 304 306 309 313 315 317 318 321 323 323 324 324 324 325 326 326 326 326 327 327 327 326 326 325 325 325 324 324 323 324 323 323 325 325 324 325 325 325 325 324 323 324 323 322 321 320 320 319 318 319 319 319 318
292 297 295 290 289 285 281 282 280 283 285 284 287 286 286 288 294 294 298 300 301 301 300 301 301 301 301 301 301 301 301 302 303 303 303 304 304 303 304 304 303 303 304 304 304 305 308 310 313 315 317 320 321 322 322 322 323 324 325 326 326 327 327 327 327 327 327 326 325 325 325 325 325 325 325 325 325 324 323 324 324 323 322 323 323 322 321 321 320 319 319 318 319 319 318 316 314
293 294 295 290 289 291 287 286 286 283 283 282 283 286 292 293 297 297 298 297 297 298 298 298 298 299 300 298 299 302 303 303 303 302 302 303 303 304 304 304 303 303 303 303 303 304 307 309 312 314 316 318 320 320 321 322 323 324 325 325 325 326 325 327 326 327 327 327 325 325 325 325 326 326 326 325 323 322 322 322 321 321 321 322 323 323 322 322 319 318 317 315 314 314 315 313 312
291 291 287 291 295 291 284 282 283 283 283 283 288 286 291 295 296 298 299 299 298 298 297 297 298 300 301 300 302 303 304 304 303 302 303 303 304 304 304 304 305 304 303 304 304 304 305 308 310 312 314 317 319 320 321 322 322 323 323 324 325 325 326 325 326 326 326 327 326 325 325 325 326 326 325 323 321 320 319 319 318 319 319 319 319 319 317 316 317 316 314 313 311 311 311 311 312
293 286 291 293 296 294 289 283 282 283 281 284 284 284 288 288 287 295 293 295 297 298 299 300 299 300 299 302 304 305 305 305 303 301 302 302 303 303 304 304 304 305 305 306 305 304 304 307 309 310 312 313 316 318 319 320 320 321 322 323 324 325 325 325 326 325 325 324 324 325 325 324 323 323 323 319 318 316 317 313 317 315 316 317 317 318 317 316 313 311 311 311 310 309 308 307 306
294 293 300 291 285 284 288 286 278 279 278 282 284 284 284 288 290 294 293 293 295 297 298 298 296 297 299 301 303 304 303 301 301 302 302 303 303 304 305 305 306 304 304 304 303 302 303 303 304 306 309 311 313 316 316 318 319 320 321 321 322 322 324 324 325 325 324 324 322 323 323 323 322 320 317 315 314 314 314 313 315 313 313 313 315 316 314 313 313 310 309 307 305 306 305 304 303
294 295 294 294 292 289 285 286 286 286 283 280 282 282 284 291 291 295 296 296 296 297 299 299 300 300 300 301 302 304 305 304 302 301 302 303 304 304 304 305 306 303 302 302 301 301 301 302 303 303 304 304 304 307 311 313 316 317 317 319 320 321 322 322 323 323 322 321 322 321 321 321 320 316 315 313 313 312 310 310 310 311 311 312 312 311 312 311 309 308 305 303 302 304 303 300 298
288 290 290 290 290 292 292 289 286 285 283 282 282 282 287 294 295 295 297 298 299 300 300 302 302 300 300 301 303 305 303 303 302 301 301 302 302 303 303 301 299 297 296 297 299 302 303 302 302 303 303 304 303 304 306 309 312 314 314 316 317 318 319 320 321 321 321 320 321 320 321 321 317 313 312 311 311 310 309 309 309 309 309 307 307 306 307 307 306 300 301 300 300 301 300 296 295
291 291 289 290 287 285 283 283 288 284 285 281 281 281 289 296 294 296 297 299 300 301 301 302 300 298 299 303 303 302 302 301 300 300 299 301 301 302 302 301 299 297 298 298 300 302 302 302 303 303 303 303 304 305 306 307 309 310 312 314 315 317 317 318 319 319 318 318 318 317 317 316 313 311 310 310 309 309 308 308 309 310 307 305 305 305 302 305 302 300 297 297 298 299 298 295 294
Wind_Speed
4 2 1 1 2 2 4 2 5 3 4 2 2 2 5 0 1 4 4 5 6 3 2 2 7 9 3 2 5 4 3 3 6 3 4 3 4 10 8 9 10 10 8 7 7 8 8 5 9 11 12 13 13 12 12 12 11 11 12 12 11 11 12 12 12 12 13 14 12 14 13 12 13 13 12 13 13 13 13 14 14 14 14 15 15 15 15 16 15 16 17 18 18 18 18 17 17
2 1 2 2 1 2 2 2 1 1 1 3 3 1 5 3 2 6 8 8 4 5 4 4 7 4 3 3 1 2 4 7 5 5 3 4 9 8 8 10 11 11 8 7 7 8 8 9 10 10 12 13 13 12 12 11 11 11 12 12 11 13 12 12 13 13 11 13 12 12 12 12 14 14 13 13 13 12 12 15 15 15 15 14 15 16 15 16 16 17 17 17 18 17 17 17 17
1 2 2 2 2 2 2 2 4 1 3 1 4 1 3 5 6 6 5 2 4 5 6 6 6 4 2 2 4 4 4 1 4 2 5 9 11 7 9 11 10 9 8 6 7 7 7 7 6 13 12 13 12 12 11 11 10 10 12 12 13 14 13 11 13 13 10 13 12 11 12 12 12 12 13 13 12 13 13 14 14 14 14 14 15 14 17 18 16 17 18 18 18 17 17 16 16
1 2 3 1 2 2 2 1 1 2 2 3 1 4 6 5 6 6 5 5 7 6 5 7 8 1 4 4 2 0 3 4 3 6 6 9 6 10 10 11 9 8 7 6 7 7 7 7 2 10 12 12 12 11 11 11 10 9 12 13 13 14 13 11 12 11 11 12 11 12 12 12 13 13 12 12 14 11 12 13 14 13 13 16 15 14 17 18 17 18 18 17 17 17 17 16 16
1 0 2 2 3 1 2 2 1 2 2 1 3 3 6 4 6 6 5 6 6 2 3 5 2 2 3 3 1 3 4 5 5 3 7 6 9 11 12 11 9 8 8 7 7 7 7 6 4 7 12 11 11 11 10 9 8 12 14 13 11 11 11 11 12 12 11 10 11 11 10 14 13 14 13 13 13 13 11 13 14 14 13 14 15 15 17 18 17 17 16 16 16 16 16 16 15
1 2 3 1 2 2 2 3 3 0 4 1 1 3 5 5 7 6 9 6 3 2 4 5 3 4 4 1 2 2 4 2 6 5 9 7 12 13 13 10 10 9 8 7 6 6 7 5 6 5 8 11 12 11 10 9 9 12 12 12 11 9 10 11 12 11 11 12 11 11 11 12 12 12 12 12 13 13 12 13 14 14 13 13 13 14 15 15 16 15 15 15 16 16 15 15 14
2 2 1 2 3 2 2 1 1 1 4 2 3 2 3 6 7 11 10 6 3 3 1 2 1 2 4 3 3 1 3 3 6 6 8 11 12 13 12 11 10 9 9 7 7 6 9 5 3 5 7 8 11 11 11 10 9 9 11 11 10 10 12 12 12 10 12 12 12 12 11 11 11 12 12 13 12 12 11 12 13 14 14 14 14 15 15 15 15 15 15 14 14 14 14 13 13
1 3 2 3 1 3 1 1 0 1 3 2 3 2 2 4 7 10 12 9 7 5 5 1 3 5 4 1 1 5 0 2 5 7 9 12 13 13 12 11 10 10 9 7 7 7 7 3 4 7 8 10 9 10 11 10 10 9 9 9 10 12 13 12 11 11 11 12 11 12 13 12 12 12 12 12 12 12 11 12 13 13 13 14 14 14 14 14 14 14 14 14 13 13 13 13 12
3 1 1 2 2 0 2 1 1 1 1 3 3 3 3 2 7 9 12 3 3 2 4 5 2 5 4 4 1 4 1 2 2 9 10 13 13 13 10 11 10 10 9 8 7 8 8 5 4 4 7 8 9 8 10 12 10 9 8 6 6 11 14 13 12 10 9 11 11 10 11 11 11 11 11 11 11 11 11 11 12 13 13 13 14 13 13 13 13 13 13 13 13 12 12 12 11
1 2 3 1 2 4 2 2 3 3 0 2 2 1 2 4 8 7 11 6 1 5 3 3 2 4 3 2 2 4 4 3 7 10 11 13 12 12 11 11 10 12 10 9 8 8 7 6 4 3 4 6 7 7 6 9 11 10 8 8 12 13 13 12 12 10 9 12 11 11 11 11 11 10 11 12 12 11 11 11 10 12 12 12 13 13 13 12 12 12 13 12 11 11 11 11 11
1 2 3 4 4 3 4 2 1 3 2 1 5 4 3 6 7 6 6 4 3 2 5 3 4 4 4 2 1 3 2 4 10 12 12 12 12 11 11 10 8 10 10 10 9 8 8 6 5 4 4 3 6 6 4 6 11 10 8 7 9 12 12 12 12 10 10 11 12 11 10 11 11 11 11 11 11 11 11 11 10 11 13 13 13 13 13 12 12 12 12 12 11 10 10 10 10
2 1 2 4 4 4 1 2 1 0 1 2 3 3 4 9 7 8 7 6 5 4 5 10 1 6 3 1 3 4 3 6 10 11 11 11 10 10 10 8 8 8 10 10 9 9 9 7 6 6 5 5 5 5 4 5 9 8 7 8 6 9 11 10 10 10 10 12 12 10 11 11 11 11 10 9 8 9 11 10 10 9 12 13 12 12 12 12 11 12 12 11 11 11 10 10 10
1 0 3 5 1 3 3 3 1 2 2 2 3 3 4 9 10 9 9 2 6 6 5 9 2 4 3 3 4 5 5 8 10 11 11 9 10 9 8 9 8 8 9 10 10 9 9 8 6 7 6 7 5 6 5 4 6 7 6 6 5 7 8 10 11 9 8 11 11 11 11 10 11 11 11 11 9 9 9 9 9 9 10 11 11 11 11 11 12 12 12 11 11 11 10 10 9
2 0 1 3 2 0 2 1 1 3 3 3 2 3 7 5 6 2 6 7 7 5 4 5 4 2 1 1 5 6 6 10 11 11 10 10 8 8 8 8 8 7 9 10 10 10 9 8 7 7 8 8 8 6 5 4 6 7 6 6 6 7 10 10 9 9 10 11 11 10 8 9 10 10 10 10 9 9 7 6 8 9 9 10 11 11 10 11 11 11 11 10 10 10 10 10 10
1 1 1 1 2 1 1 3 1 3 3 1 3 5 6 2 3 2 8 8 5 5 3 1 1 2 2 6 4 7 9 12 10 10 10 10 9 8 8 8 9 7 8 8 9 10 10 9 8 7 7 8 8 7 8 5 6 7 7 7 7 7 8 9 9 9 10 11 11 10 10 9 9 9 9 9 8 8 9 9 8 8 10 10 10 9 10 10 11 11 9 9 9 9 10 10 10
1 2 1 4 3 3 3 3 1 3 3 2 3 1 7 3 1 4 3 4 3 2 3 5 2 2 3 2 6 7 12 13 11 10 10 10 9 8 7 8 8 8 6 7 8 8 9 10 9 7 6 6 7 7 7 9 6 8 7 7 8 7 7 8 9 9 9 10 10 11 10 9 8 7 8 8 8 9 9 8 7 7 8 9 9 9 8 9 11 10 9 9 8 8 8 8 8
0 2 4 2 5 4 3 4 4 2 6 3 4 5 8 6 3 2 3 3 3 5 4 1 4 0 0 4 4 3 10 13 11 12 10 9 8 7 6 7 7 7 6 7 6 7 8 10 11 8 8 7 7 7 6 8 6 7 6 7 7 7 7 8 8 8 8 8 9 9 9 7 7 6 6 6 6 7 7 8 8 8 7 7 8 8 8 8 9 9 8 8 7 6 6 7 7
2 5 4 5 1 5 4 5 3 3 1 4 4 6 7 6 5 3 3 4 0 3 5 3 1 5 2 3 2 2 11 14 13 13 11 11 9 9 7 7 8 8 7 6 7 7 8 8 10 10 8 8 8 6 5 5 5 6 7 6 6 6 6 7 7 6 7 6 7 7 5 5 5 5 6 6 5 7 6 7 7 7 7 7 7 8 7 8 9 8 6 6 6 5 4 2 4
5 2 4 6 4 1 1 2 2 2 4 2 2 2 6 2 7 5 6 6 6 5 6 3 5 7 5 3 1 4 14 14 15 14 14 14 11 12 10 8 9 9 8 7 6 8 7 7 9 10 10 9 8 8 6 5 7 6 6 5 5 5 6 6 7 5 6 6 6 5 4 4 4 4 4 4 4 7 7 6 6 6 7 8 8 8 7 7 7 5 4 3 3 3 3 1 1
2 4 7 5 3 2 1 2 4 1 2 1 1 3 4 1 2 5 6 4 5 10 7 6 8 10 10 4 4 9 14 15 16 16 16 15 13 12 12 11 10 10 10 8 6 7 7 7 9 9 10 11 9 8 7 7 6 6 5 5 4 5 7 7 7 6 6 6 5 5 4 4 4 4 7 6 5 5 5 5 5 6 6 6 4 5 6 6 6 5 3 2 4 1 1 0 1
2 4 7 2 5 4 3 3 3 1 2 2 1 3 4 3 4 6 4 6 10 10 10 9 12 12 9 8 9 11 14 15 16 15 15 15 14 11 11 11 10 10 9 8 6 7 9 8 8 8 9 10 11 8 8 8 7 6 6 5 5 4 5 7 6 6 6 5 5 4 3 4 3 4 5 4 3 3 4 4 5 4 4 4 1 2 2 2 3 2 2 2 0 0 0 1 1
4 1 4 4 3 2 4 0 3 2 0 2 1 3 2 3 2 7 7 9 5 4 7 10 8 4 11 12 11 12 15 16 16 17 17 18 18 15 12 10 10 10 8 9 9 7 9 8 8 7 8 10 11 9 8 7 7 7 7 7 6 5 5 5 6 6 6 6 5 4 5 4 4 3 4 4 4 3 3 3 2 2 2 3 2 1 1 1 1 1 1 1 0 0 1 1 1
6 1 1 1 1 2 2 1 1 2 2 2 2 2 1 5 3 6 9 14 1 1 3 2 4 2 8 10 12 13 16 17 18 19 19 18 18 17 15 12 11 11 10 10 9 7 8 9 9 8 8 8 11 9 8 7 8 7 7 7 7 6 5 5 5 5 5 6 5 5 5 5 4 4 5 5 5 3 3 2 2 2 2 2 1 1 1 1 1 1 1 0 0 1 0 1 1
3 5 4 4 2 4 2 1 2 2 2 1 1 1 5 3 6 2 9 13 4 4 2 1 1 4 10 12 13 16 18 19 20 20 20 20 19 18 16 14 12 11 10 11 10 9 8 10 10 9 8 8 9 10 9 7 7 8 7 6 6 6 6 6 5 5 5 5 6 6 6 5 5 4 5 5 5 4 3 2 2 2 2 1 1 1 1 1 1 1 1 0 1 0 1 1 1
6 5 5 4 1 3 1 0 2 2 4 0 2 4 3 5 2 2 9 13 6 3 2 2 5 8 9 11 13 13 14 15 15 15 14 13 14 14 14 12 13 12 13 12 10 11 11 9 10 10 9 10 8 9 9 7 6 7 7 7 8 7 7 6 5 5 5 5 6 6 6 5 5 5 5 5 4 4 3 3 3 2 2 2 2 2 2 2 2 1 1 1 1 2 2 2 2
6 3 6 4 3 3 1 2 2 2 1 3 4 6 3 1 1 7 14 3 3 5 3 5 7 8 10 11 12 13 13 16 15 14 17 13 12 15 16 14 13 14 14 12 11 11 10 11 11 11 11 10 9 9 8 7 7 7 7 7 6 7 7 7 6 5 5 5 5 7 6 6 5 5 5 5 5 4 4 3 3 2 3 2 2 2 2 2 2 2 1 1 2 2 3 2 3
7 6 4 4 2 1 2 3 1 2 2 3 4 4 0 2 2 5 3 1 3 5 4 3 7 9 10 9 10 11 12 14 15 12 11 13 13 15 16 15 15 15 14 14 12 11 10 11 12 12 11 9 8 8 8 8 8 7 8 7 6 7 7 6 7 6 5 5 5 6 6 7 5 5 5 5 5 5 4 4 4 3 3 3 3 2 2 2 2 2 2 2 2 3 4 3 3
4 6 2 4 6 6 5 5 5 1 2 4 4 4 1 3 3 8 1 2 3 7 5 5 6 7 8 9 9 9 9 9 8 10 15 16 14 16 17 16 17 15 15 15 13 12 12 12 12 12 12 10 9 9 8 8 8 8 8 7 7 7 7 6 6 6 7 6 6 5 6 7 7 6 6 5 5 5 5 5 4 4 4 3 3 3 3 3 3 2 1 2 3 4 5 4 4
4 6 7 3 2 8 8 10 6 5 6 5 4 6 8 7 7 10 0 2 3 6 6 6 7 5 5 7 8 8 9 9 10 11 15 14 13 12 16 17 15 15 13 15 15 14 15 14 12 13 13 12 12 11 9 8 7 7 7 7 6 6 7 6 6 6 6 6 6 7 7 7 7 6 6 6 6 5 5 5 5 5 4 4 3 3 3 3 3 4 4 4 4 4 4 5 3
6 2 3 3 6 8 9 4 3 5 2 6 3 9 9 9 11 6 3 2 2 3 6 6 5 5 5 7 8 8 8 10 12 14 13 12 12 13 15 15 17 15 12 12 15 16 13 10 9 11 12 13 13 11 10 8 8 7 7 7 7 7 7 7 6 6 6 6 6 8 7 7 7 7 6 6 6 6 5 5 5 5 4 3 2 3 3 3 3 3 5 4 4 5 5 4 5
6 4 2 6 5 7 4 3 6 8 4 7 5 11 9 2 3 4 3 4 5 7 8 7 6 6 5 7 7 9 11 12 14 13 12 12 12 12 15 14 16 16 12 13 16 17 15 12 8 11 11 14 11 12 11 11 9 9 8 7 7 8 7 7 6 6 6 6 6 7 8 7 8 8 7 6 7 6 5 5 5 5 4 3 3 4 4 4 4 5 5 6 6 6 6 5 5
4 5 7 6 8 3 3 4 7 11 4 7 8 11 12 10 9 5 2 2 4 9 9 8 6 5 6 6 8 8 9 9 11 11 12 12 13 12 14 15 15 16 17 16 15 14 16 16 13 13 12 15 14 14 13 12 11 10 10 9 8 9 8 8 7 7 6 6 6 6 8 8 8 8 8 7 6 7 6 6 6 5 4 4 4 4 4 5 5 4 4 5 7 7 6 7 5
4 8 4 7 7 5 2 6 3 5 3 6 13 8 3 7 4 3 3 5 5 7 8 6 5 6 7 7 7 7 7 9 9 12 13 13 13 13 13 14 15 17 17 17 16 16 16 17 15 15 15 15 16 15 15 14 12 12 12 11 10 10 10 9 9 8 8 7 6 6 7 8 8 8 8 8 7 7 7 6 6 5 5 5 5 5 5 5 5 5 6 5 5 7 7 7 7
7 7 6 2 7 5 6 5 4 4 8 8 11 11 13 5 3 5 3 5 5 6 8 9 8 7 6 6 7 7 8 8 11 13 16 16 13 15 13 12 14 15 15 17 17 16 17 16 16 15 16 16 14 14 14 13 13 13 11 11 10 11 12 10 9 9 9 8 8 7 7 8 7 8 8 8 8 7 7 7 6 6 5 4 5 5 6 7 6 5 6 6 5 6 7 7 7
10 8 6 5 5 7 6 6 6 5 7 10 10 14 15 13 12 7 4 4 5 8 7 6 6 6 6 6 7 9 8 10 13 12 13 14 13 12 12 12 12 13 12 16 17 16 15 15 14 13 12 15 13 13 13 13 13 13 12 12 13 13 11 11 10 9 9 8 9 9 9 7 7 8 9 8 8 7 7 7 6 7 6 5 6 6 6 6 5 4 6 7 5 6 7 6 6
6 11 8 4 7 9 10 6 4 5 7 10 12 12 12 13 12 14 6 6 7 10 7 6 7 6 6 6 7 7 9 12 12 9 9 9 11 11 11 11 12 12 13 14 17 17 17 16 15 15 14 15 15 14 12 12 10 10 11 11 12 10 11 9 10 9 9 9 9 9 9 9 8 8 9 8 8 8 7 7 7 6 6 5 6 6 7 8 7 6 7 7 7 6 4 6 6
4 7 5 7 8 5 4 3 4 0 3 11 12 13 14 13 14 13 12 5 5 8 10 9 9 8 8 7 8 9 9 13 3 6 8 10 11 11 11 11 12 14 15 16 16 18 19 18 16 17 16 16 15 14 12 11 11 11 12 13 14 11 11 11 9 9 8 8 9 9 9 9 10 9 8 8 8 8 8 7 7 7 7 6 6 7 8 8 7 7 7 5 7 8 6 5 5
7 8 9 8 9 9 7 7 3 2 5 5 2 5 11 11 11 12 9 4 9 9 11 12 11 10 9 9 9 9 11 5 6 8 8 9 10 12 11 11 13 15 16 17 19 19 19 20 19 17 16 16 16 14 13 13 13 12 12 12 12 11 10 11 12 9 10 8 9 9 9 9 10 10 8 9 8 9 8 7 8 8 7 7 7 8 8 8 8 8 5 6 5 7 6 2 3
7 7 7 7 8 4 1 1 1 2 1 8 2 7 11 11 10 11 13 11 9 10 11 12 11 10 8 9 9 9 6 9 7 10 8 9 11 12 12 12 13 17 16 18 19 18 17 18 18 17 16 16 16 15 13 13 13 13 13 11 13 10 9 11 11 10 10 11 11 11 10 10 11 10 10 9 8 9 9 8 8 7 8 6 7 9 10 10 10 10 10 8 7 5 6 4 5
6 6 7 9 5 8 6 6 4 2 3 4 3 7 11 13 12 13 14 12 10 11 12 12 10 12 11 12 11 8 8 9 10 11 10 10 11 11 11 12 14 14 15 15 16 17 15 16 17 18 18 17 15 16 14 16 14 14 14 14 13 13 12 11 11 11 10 11 11 11 11 11 12 11 10 10 8 12 10 9 9 8 8 10 10 10 10 11 11 10 9 9 7 7 6 6 6
6 9 9 8 7 9 3 3 4 2 2 1 6 10 13 13 15 14 13 12 8 8 8 8 7 8 10 7 5 6 10 10 9 11 9 9 10 13 15 14 11 12 15 15 16 16 14 19 20 19 17 16 15 16 17 17 14 13 13 13 11 11 9 9 10 11 11 10 10 11 12 12 13 11 10 10 9 10 11 9 11 10 11 11 11 10 10 10 11 10 10 8 8 8 8 6 4
8 10 12 11 7 7 4 4 6 5 7 4 2 6 7 3 8 14 8 3 9 7 8 10 9 8 8 10 12 10 10 10 12 13 11 7 9 10 10 11 13 14 15 16 15 17 17 16 17 16 14 13 15 17 17 16 15 15 14 12 13 13 14 11 14 15 13 13 12 8 8 10 11 10 10 10 10 8 10 12 13 12 11 11 10 8 9 9 10 10 9 9 9 10 8 6 4
7 7 12 7 6 7 6 6 5 5 6 3 2 9 5 3 7 9 7 7 12 6 8 9 8 7 8 9 9 9 9 10 10 12 13 10 9 8 10 12 14 14 15 11 11 13 16 13 13 15 14 13 13 15 16 15 17 15 16 16 15 13 13 11 10 11 12 11 10 13 10 9 10 10 11 10 10 10 9 9 11 11 11 9 9 8 9 9 8 9 8 9 9 9 8 6 7
8 4 9 5 8 8 7 5 8 4 4 1 2 4 7 9 12 9 11 13 13 13 13 10 9 9 9 8 9 9 9 10 12 10 11 11 11 11 12 12 11 14 11 9 11 12 14 15 14 14 13 12 12 13 17 18 15 16 17 17 15 16 17 16 13 12 13 11 9 11 10 9 11 12 12 12 12 11 10 10 10 11 11 9 7 10 10 9 9 7 8 9 8 7 7 7 6
1 4 8 9 9 6 6 5 1 2 3 6 5 4 5 8 6 5 1 9 13 16 14 13 11 12 11 10 10 11 12 10 9 8 10 10 10 12 12 10 9 9 8 11 11 11 12 13 13 13 14 13 13 14 15 16 16 15 16 15 16 14 15 15 13 12 12 12 12 10 10 10 10 11 12 12 11 11 9 9 11 9 9 9 5 9 7 9 10 10 9 7 7 6 6 7 7
2 7 8 7 7 5 3 2 2 1 3 8 7 9 7 11 6 6 4 6 11 12 13 15 15 12 11 9 9 10 8 6 6 10 10 10 9 8 7 8 9 9 7 8 9 9 10 11 13 15 16 13 12 14 14 16 17 17 16 16 17 16 13 13 13 12 11 10 14 13 12 11 9 10 11 11 10 11 10 9 10 10 9 8 8 9 7 9 10 10 10 9 8 8 7 6 7
10 9 9 7 5 3 3 1 1 2 8 9 8 10 7 8 5 8 7 7 9 9 8 9 8 8 8 8 7 4 4 5 6 8 9 8 6 6 4 7 9 8 5 7 10 11 10 11 13 15 16 12 12 14 15 18 19 17 17 17 18 17 16 14 14 13 10 11 14 14 13 13 11 10 9 10 10 11 11 10 10 8 7 7 8 9 7 8 8 8 8 8 9 10 8 8 7
12 5 9 9 4 2 1 1 1 4 7 3 2 4 9 10 3 6 6 3 2 6 9 10 12 14 10 5 4 5 5 5 5 5 7 7 6 6 5 6 7 8 6 7 8 8 9 11 11 14 15 15 13 12 14 17 17 18 18 18 16 16 16 15 17 17 14 14 14 14 12 11 10 10 10 10 10 10 10 9 9 10 9 8 8 8 7 7 8 8 7 8 8 9 9 9 9
6 9 10 8 5 2 4 2 6 10 6 2 2 1 3 18 12 4 4 7 11 10 9 10 11 10 4 3 3 3 4 5 6 8 7 5 5 5 5 6 4 6 7 9 8 8 9 10 12 13 14 14 12 12 14 17 17 18 18 18 18 15 17 17 16 16 15 14 13 14 12 12 10 10 9 10 11 12 10 9 8 8 8 8 9 9 8 8 8 8 8 8 8 9 9 10 9
10 13 12 8 6 5 7 7 1 4 1 3 4 3 9 8 8 17 19 18 14 13 11 10 9 10 7 3 4 5 7 8 7 5 5 6 6 5 5 5 4 4 6 7 8 8 8 8 10 13 13 11 11 12 14 16 18 18 17 17 16 15 15 16 16 14 14 13 12 13 12 12 12 13 11 12 12 12 9 10 9 9 9 8 8 9 10 10 10 8 8 9 9 9 9 10 9
13 10 11 1 4 5 7 5 7 4 0 3 2 0 5 2 1 4 7 9 9 4 6 6 7 9 7 5 6 8 9 9 6 7 8 8 6 6 5 3 3 3 4 6 6 7 7 8 9 11 11 10 11 13 14 17 16 16 16 16 16 14 15 14 14 14 13 13 13 14 12 12 12 12 12 13 11 10 11 10 9 8 7 9 9 9 10 10 9 7 9 9 9 9 10 9 8
2 1 4 0 3 2 2 0 1 2 2 2 3 7 2 5 7 6 6 8 10 10 8 6 8 8 4 5 6 8 8 6 5 7 8 8 5 4 4 3 3 3 4 4 5 5 6 7 8 10 11 10 11 13 14 15 15 13 16 17 17 15 11 11 11 8 9 11 13 13 13 13 12 12 12 11 10 10 11 10 9 9 9 10 11 12 12 11 9 8 8 9 9 6 9 7 7
10 5 9 4 5 3 4 2 3 1 1 6 3 6 7 7 12 18 17 11 11 9 9 9 9 8 5 7 8 9 6 5 4 6 6 6 4 4 4 3 2 3 4 5 5 6 7 7 7 9 9 9 10 12 13 14 14 15 16 16 16 14 13 12 11 7 8 9 12 11 12 13 13 12 10 9 8 9 8 10 9 9 10 10 11 11 10 8 8 6 7 8 8 8 8 9 8
10 7 9 4 1 3 2 2 1 2 5 3 3 8 9 0 6 4 3 9 14 12 15 10 7 7 7 8 7 7 6 5 4 5 5 5 5 4 2 2 4 4 4 4 4 4 4 4 5 7 7 9 9 10 12 12 14 15 13 12 12 10 11 10 10 9 7 10 10 11 11 11 11 10 8 8 8 10 9 10 10 8 9 10 9 9 8 10 8 7 8 8 7 7 7 5 5
6 6 11 11 6 6 4 1 3 4 3 4 5 6 8 9 10 2 3 9 10 12 9 5 6 7 8 8 7 6 5 4 4 4 3 3 4 4 4 5 3 3 3 2 1 2 3 3 4 5 6 5 5 6 9 10 11 10 9 12 13 12 12 13 12 11 10 12 11 11 11 11 10 8 8 9 8 9 9 9 9 9 8 9 9 11 7 8 9 7 7 7 6 8 7 7 5
1 3 9 4 2 2 7 4 1 1 3 0 3 3 6 8 9 12 9 10 11 9 9 9 9 8 8 7 7 6 4 3 3 3 3 3 2 2 2 2 2 2 2 2 2 3 3 3 3 3 3 2 3 4 7 9 9 9 8 9 11 11 10 10 10 10 10 11 12 11 11 10 10 9 10 12 10 10 10 10 9 10 10 10 10 8 9 9 7 7 8 7 7 7 9 8 6
7 8 10 6 3 4 2 1 3 2 2 3 3 4 5 4 7 9 16 16 13 9 10 6 3 2 5 7 6 5 4 3 3 3 3 2 1 1 2 3 2 3 3 3 3 4 3 3 3 3 3 3 3 4 5 6 7 9 10 10 9 9 10 8 9 10 10 10 11 11 11 10 8 9 9 10 10 11 11 11 11 10 12 10 10 8 8 8 9 9 7 9 8 8 10 6 6
10 11 11 13 10 6 9 7 3 0 3 2 2 8 7 2 4 10 10 11 9 9 10 5 2 4 5 5 5 4 3 3 3 2 2 1 2 3 3 3 3 4 4 4 4 4 4 4 4 3 4 4 4 4 4 4 4 6 9 9 10 8 7 8 9 9 9 9 9 9 9 8 9 9 10 10 10 10 10 10 11 13 11 11 10 10 10 9 11 11 9 6 7 10 9 8 7
Wind_Direction
341 330 268 274 255 278 248 359 249 124 250 74 117 215 106 4 338 163 164 137 180 119 127 123 131 152 206 344 1 28 7 247 14 270 60 69 154 141 137 141 140 139 135 134 133 147 145 121 137 123 116 107 100 100 101 104 105 105 102 94 92 98 106 97 101 97 91 95 98 96 93 88 93 96 95 91 90 92 94 99 96 91 89 89 91 89 85 85 84 87 86 83 80 78 75 74 73
335 317 259 253 256 271 163 312 262 234 171 153 99 301 111 155 201 191 163 181 42 119 140 134 150 113 44 313 13 139 111 36 21 61 85 115 153 135 136 149 145 139 134 135 141 150 141 121 133 125 118 109 106 106 107 107 110 113 109 102 102 93 95 102 100 100 100 98 92 96 90 90 91 93 99 98 95 94 91 81 81 83 84 88 97 99 91 82 82 81 81 81 80 77 76 74 73
330 316 218 230 220 342 124 240 255 11 304 32 114 130 107 179 196 171 157 99 82 106 130 130 130 168 206 187 196 262 91 60 92 84 99 147 143 151 151 144 145 135 134 137 140 146 148 129 121 125 121 114 112 110 111 112 113 113 108 105 100 106 104 102 98 98 92 89 94 86 96 101 100 95 90 94 97 102 93 88 88 86 89 89 83 85 91 86 83 84 80 77 77 76 75 74 73
278 309 288 190 277 196 278 205 334 303 336 24 140 137 182 195 175 146 70 84 108 123 134 144 173 60 287 224 11 354 106 137 94 121 126 166 149 147 148 141 142 139 135 136 141 147 156 131 89 126 121 117 116 112 113 111 111 116 109 104 105 110 109 102 100 99 108 109 103 108 110 103 101 100 96 97 101 99 94 93 94 90 87 85 87 90 89 88 84 79 78 79 78 77 75 75 73
212 76 295 243 287 103 330 31 16 271 329 63 32 137 204 214 146 133 99 115 109 107 174 155 175 84 357 343 20 294 89 84 142 165 144 143 119 146 146 144 149 141 143 143 143 143 132 75 109 119 123 125 123 120 119 115 111 114 112 110 110 110 110 113 104 100 100 105 106 103 98 88 90 98 104 104 99 102 100 94 92 92 91 94 99 94 88 87 85 83 82 80 79 77 77 76 74
241 277 37 288 293 28 207 192 158 56 43 353 58 66 188 186 153 137 130 134 106 8 8 188 332 151 187 159 356 355 144 167 130 175 160 142 149 147 142 149 149 146 142 145 144 149 135 117 119 120 136 137 132 128 124 123 114 121 115 117 121 117 114 107 109 112 108 96 102 102 97 97 99 91 94 92 98 101 101 91 86 86 82 83 86 88 87 86 86 85 82 80 79 79 77 76 74
327 245 73 87 121 249 306 249 92 353 92 308 17 39 182 157 143 138 144 146 197 301 174 227 190 123 217 126 178 250 47 84 172 155 174 143 146 148 145 153 149 141 145 146 148 139 133 95 106 157 133 141 139 137 131 126 121 127 125 123 126 123 115 117 117 116 110 110 111 111 104 99 97 97 98 98 96 95 90 93 88 87 85 87 87 88 87 88 85 82 82 81 80 80 78 77 74
109 272 25 279 80 285 127 35 125 276 86 267 22 337 90 149 153 160 158 176 168 213 160 206 241 265 55 282 268 100 210 253 36 151 144 153 149 147 154 152 150 143 147 147 149 141 122 89 102 135 144 152 149 145 134 133 127 119 115 126 129 130 127 119 111 110 117 114 109 110 107 102 105 108 109 103 101 102 104 106 98 92 91 86 81 77 82 81 83 84 83 84 82 81 80 78 76
7 324 197 251 211 141 212 221 57 34 292 191 221 258 336 245 186 168 168 179 95 234 157 178 164 220 114 157 186 85 164 124 187 164 153 156 154 155 156 159 151 146 149 151 147 144 152 83 87 135 146 152 155 148 143 139 134 128 120 106 119 116 111 115 114 109 110 110 109 102 102 101 97 96 95 97 96 95 91 94 101 97 88 86 85 85 83 85 84 82 83 82 82 82 79 78 74
87 309 193 246 8 235 286 153 224 108 355 114 283 147 180 177 191 208 172 178 165 162 114 114 151 281 122 189 141 171 130 170 156 163 162 158 156 159 159 161 152 147 150 152 151 154 143 92 65 130 143 152 157 149 141 142 139 134 132 116 122 115 116 117 115 118 114 110 109 110 112 110 110 110 109 104 104 106 105 102 99 97 95 89 85 80 79 82 84 86 84 83 83 80 78 76 74
228 62 2 212 208 241 230 131 209 155 205 146 245 224 207 172 185 188 184 157 100 183 126 173 204 203 193 106 349 58 65 166 165 165 167 160 156 163 160 162 150 151 148 153 151 154 153 136 75 92 132 129 138 148 129 148 138 139 129 122 126 124 126 126 124 121 126 115 114 116 112 108 105 99 95 92 93 100 102 104 103 102 97 91 89 86 83 81 82 84 83 81 80 78 76 74 73
194 221 195 231 230 249 131 281 137 322 270 224 126 127 170 172 174 184 187 190 168 176 174 189 77 144 165 103 159 121 127 168 169 162 169 158 164 164 158 161 154 149 147 151 155 156 156 141 156 104 92 96 121 117 99 116 136 136 131 131 120 129 134 137 126 119 129 123 120 120 115 111 108 97 87 90 97 104 104 103 106 103 103 101 98 92 89 85 87 86 82 79 76 76 76 76 73
316 151 206 236 244 236 60 258 105 324 263 126 82 113 157 170 188 198 182 184 164 172 196 194 84 225 194 167 72 124 172 172 164 165 166 163 166 162 160 160 156 148 147 154 160 156 158 155 154 162 113 99 97 106 116 102 106 125 131 122 95 78 81 101 109 114 129 128 122 118 111 112 100 88 84 72 60 80 94 96 104 108 106 103 96 92 88 88 86 84 80 81 76 75 73 73 73
270 194 217 225 39 92 207 335 38 245 159 69 85 102 171 178 203 257 169 192 181 197 59 138 163 202 43 273 153 172 179 168 163 161 166 166 163 164 162 162 158 151 154 162 161 160 164 162 161 159 151 161 153 137 118 113 109 110 104 100 93 86 89 97 94 94 102 106 106 105 104 97 95 89 82 75 73 69 66 94 112 116 115 109 100 94 95 89 86 85 80 78 77 75 73 72 69
79 223 139 59 146 244 109 247 286 229 109 61 87 164 170 251 349 226 205 224 159 47 103 318 18 228 109 200 140 174 157 161 164 161 165 163 166 163 164 164 163 158 161 168 163 165 168 167 166 165 165 160 160 170 161 125 118 112 110 97 84 95 98 101 102 102 107 112 111 108 103 99 92 87 82 80 78 71 78 78 73 97 108 103 99 101 102 95 87 84 81 76 74 72 71 71 68
74 179 77 211 196 235 148 225 254 256 98 36 88 8 176 125 228 193 202 340 79 70 206 166 227 294 344 235 63 79 134 155 160 161 165 163 166 165 166 171 172 166 166 172 167 174 172 172 171 171 170 166 167 167 158 151 126 123 118 102 96 99 104 106 109 106 110 114 115 118 114 116 115 101 95 92 78 72 61 66 69 94 112 110 113 114 110 105 98 91 83 80 71 69 66 63 60
286 274 187 185 209 203 137 217 177 212 93 97 129 176 183 181 146 292 357 255 202 159 205 76 181 326 325 63 53 42 139 150 157 160 166 163 166 166 164 177 176 175 176 179 180 178 177 180 177 175 175 174 168 168 159 157 123 132 126 102 104 109 112 111 109 114 113 118 127 126 144 144 135 129 138 116 116 85 77 76 73 67 86 112 117 114 111 112 98 92 90 88 85 83 81 78 64
248 222 208 205 159 195 145 219 193 1 80 92 162 198 215 184 167 146 175 189 343 123 215 118 199 238 266 74 342 300 154 154 163 164 171 173 173 175 174 180 184 187 183 181 190 182 179 184 184 183 174 177 168 166 166 156 148 185 167 160 157 134 126 133 152 147 145 140 134 158 161 149 142 139 117 128 123 125 101 83 82 85 75 72 89 102 107 103 86 83 83 86 93 107 188 170 131
232 195 226 225 168 103 143 66 159 265 76 65 117 189 228 216 173 161 212 188 196 200 210 195 214 211 203 235 216 183 165 162 167 175 175 181 184 185 188 186 195 189 191 190 192 187 188 183 186 188 184 180 170 166 173 165 173 185 178 174 163 177 155 173 178 160 177 166 171 175 168 149 143 139 126 84 94 60 89 92 92 88 84 83 85 89 95 85 84 86 85 81 93 183 211 134 104
25 240 221 226 165 80 154 146 156 232 350 101 140 136 215 108 213 112 229 202 184 224 203 192 224 215 195 158 154 172 174 172 172 177 185 189 191 193 193 193 197 197 193 193 188 188 191 190 187 185 186 185 183 183 178 177 181 187 191 184 184 185 184 189 186 186 185 178 177 184 168 140 150 128 84 105 128 148 116 103 95 100 99 82 103 117 102 91 113 124 124 173 191 202 88 127 78
128 222 236 194 133 172 157 195 88 72 277 331 15 119 205 179 189 193 198 227 225 231 227 211 212 213 166 160 165 170 180 178 178 184 188 193 195 198 200 197 199 200 196 192 190 188 192 192 185 187 185 187 192 190 191 190 189 192 192 195 195 196 188 191 191 189 187 180 184 189 158 144 162 149 159 155 176 146 154 158 168 170 151 134 261 138 170 145 210 150 163 215 112 186 58 44 3
123 327 29 87 131 184 75 170 74 103 200 264 156 234 72 95 160 215 209 225 243 228 215 223 248 204 154 168 170 173 182 185 185 189 193 194 194 196 198 199 201 204 198 202 201 191 190 192 188 185 186 189 192 194 193 188 191 199 198 197 197 204 196 193 193 192 188 186 190 183 164 160 163 163 172 177 175 174 181 175 168 155 150 137 191 162 144 174 156 167 167 223 309 340 17 25 12
192 192 233 99 129 128 90 107 124 203 191 228 247 17 87 206 196 210 224 236 65 30 27 302 239 208 158 150 156 176 186 192 193 195 195 197 198 198 198 197 196 199 197 207 203 202 189 193 192 188 188 191 194 197 193 191 199 199 200 196 199 201 205 201 196 195 192 185 187 182 188 180 177 177 182 187 188 197 191 189 179 174 177 164 165 188 156 171 193 163 173 168 322 310 355 17 6
248 170 162 149 201 121 146 37 129 241 239 220 39 351 256 187 235 116 226 238 198 79 20 295 188 134 141 156 175 179 187 192 198 200 198 199 197 198 197 197 201 198 200 204 205 206 195 196 193 193 190 191 192 198 197 196 197 200 201 189 204 202 204 207 202 199 185 189 194 196 202 192 186 179 187 192 195 201 197 205 199 189 198 193 180 219 192 179 179 161 167 109 257 257 325 320 337
188 158 169 126 242 139 152 317 190 216 237 208 247 261 243 238 308 125 240 239 197 140 101 123 144 150 163 170 179 187 192 200 204 202 204 207 205 202 202 203 204 201 204 199 204 207 204 199 194 198 195 195 193 194 201 198 197 201 199 201 203 197 207 210 208 199 201 201 196 201 203 203 197 193 184 189 188 195 187 204 210 204 203 205 201 208 214 201 194 197 193 225 295 307 309 296 318
204 131 156 155 187 166 248 173 144 226 190 182 202 237 226 298 70 253 253 234 168 126 134 131 149 158 175 188 184 186 193 200 203 201 205 204 204 202 203 205 205 206 205 199 201 209 207 204 202 200 198 195 195 192 198 199 198 202 202 205 204 196 207 207 204 209 211 202 201 202 204 213 206 204 191 191 190 191 192 199 218 217 216 210 213 213 200 226 220 200 227 247 276 293 296 317 307
161 164 163 183 125 272 145 219 300 187 244 186 252 261 111 104 217 253 117 40 111 165 152 173 177 180 185 187 190 197 197 201 200 198 201 208 208 207 207 207 209 211 204 203 202 207 208 206 209 206 203 197 195 197 197 200 198 201 202 206 204 203 203 198 202 209 212 216 213 197 203 213 215 209 204 197 200 198 198 200 212 210 221 213 220 231 207 236 228 245 253 283 291 299 300 308 300
133 156 135 263 270 269 235 245 249 217 226 193 240 280 92 140 177 251 41 82 193 184 177 186 209 199 191 191 191 197 205 205 198 194 202 204 208 208 208 209 209 209 207 206 205 205 207 206 208 210 210 201 204 203 201 204 200 202 203 204 202 202 202 201 199 199 202 211 215 205 208 207 212 210 209 203 207 204 207 208 211 215 226 214 209 222 227 229 241 231 238 270 287 289 287 289 297
115 160 185 206 271 260 237 245 240 175 250 154 178 277 245 171 226 233 196 84 175 210 184 194 212 216 198 193 194 198 204 197 195 203 209 208 207 206 212 212 210 209 213 210 206 203 206 205 207 209 210 207 208 209 204 205 203 202 202 206 202 198 203 207 205 201 200 200 203 207 210 207 204 211 203 207 205 212 212 211 219 223 230 220 206 208 228 236 235 225 214 206 236 256 267 281 274
140 158 235 156 222 252 230 201 157 196 220 157 158 269 245 203 219 220 106 158 146 198 217 205 209 213 219 206 204 205 199 195 200 209 210 208 204 207 213 211 213 213 211 212 211 210 206 208 202 211 211 209 208 214 214 208 207 206 206 205 202 198 204 208 209 206 201 199 197 202 207 206 207 208 205 200 205 211 209 215 223 226 224 207 209 199 220 227 237 247 262 255 247 264 273 274 288
195 141 203 231 199 229 111 199 165 223 143 176 182 253 251 227 229 210 164 179 192 231 225 209 206 208 216 217 214 211 208 205 209 210 210 208 204 208 213 212 211 213 211 212 212 210 206 205 199 214 207 214 205 213 215 219 216 214 212 211 207 206 206 207 208 207 200 200 198 199 203 203 204 207 201 199 201 208 209 215 219 226 211 195 212 212 227 224 232 244 251 259 269 267 275 279 282
160 164 220 201 221 184 99 151 190 215 154 190 182 255 251 255 260 105 121 173 212 237 238 222 207 211 212 218 223 223 218 213 221 220 213 211 209 211 210 209 208 211 214 213 213 210 211 209 206 212 210 213 212 213 214 217 216 216 218 216 214 207 213 215 215 211 206 201 200 201 198 204 204 203 199 202 202 205 213 217 216 217 195 203 219 213 213 243 246 245 247 252 263 265 272 269 270
200 230 207 195 207 215 164 167 205 269 89 200 211 244 86 261 241 115 152 181 190 233 250 246 238 228 221 219 219 225 223 220 224 225 220 214 215 215 212 209 206 209 211 214 212 211 213 212 206 212 216 214 217 216 216 217 219 219 218 215 215 213 213 215 217 217 217 212 206 207 198 202 205 202 200 200 209 206 213 218 220 213 207 207 212 213 216 234 249 250 258 247 256 271 269 266 264
206 213 237 179 208 198 225 105 192 188 214 203 218 246 243 286 204 183 142 187 187 225 243 244 240 239 228 224 223 223 225 225 225 223 219 213 215 214 213 211 210 209 213 217 216 214 214 213 211 212 218 219 218 218 217 217 220 222 221 218 210 214 215 215 216 214 212 213 213 212 202 201 205 203 200 200 211 212 212 214 217 215 210 209 215 214 224 236 250 256 263 256 252 262 267 268 269
197 177 210 206 233 223 231 207 148 185 196 232 210 228 242 236 263 257 172 171 218 247 248 252 251 243 237 230 229 226 226 226 232 226 219 215 215 215 213 209 209 215 215 218 218 217 217 216 215 210 213 219 218 220 220 221 221 223 225 224 220 218 219 218 218 215 212 211 210 210 211 208 206 206 200 199 208 207 209 209 213 208 209 215 217 223 228 227 217 208 244 268 261 261 271 278 281
198 183 207 199 192 203 215 190 110 207 190 219 224 233 237 243 247 258 224 180 226 257 251 249 248 247 246 237 237 231 227 234 238 227 216 210 211 212 211 211 213 216 218 220 219 219 218 219 218 218 212 216 219 219 219 222 219 218 221 223 225 222 220 218 219 218 212 211 208 203 208 216 213 207 200 200 207 209 211 209 210 206 210 214 214 217 220 230 214 205 224 257 262 253 234 264 261
173 190 200 214 222 220 173 182 125 112 243 230 229 236 247 246 239 243 254 153 221 251 253 244 240 237 235 233 233 236 233 237 238 214 217 212 211 212 212 210 212 213 220 220 219 218 217 216 215 217 215 213 213 214 214 214 213 217 220 220 221 222 220 219 217 212 209 209 206 202 206 213 219 214 204 199 205 210 215 212 209 209 207 209 218 224 219 219 217 218 243 231 252 263 259 246 246
176 187 205 216 212 239 193 187 129 188 238 236 168 258 261 255 256 258 260 228 246 240 254 251 245 235 233 234 240 234 239 257 259 252 226 215 214 210 206 207 206 210 215 215 217 216 216 217 217 218 216 214 211 210 209 211 213 213 211 216 220 220 217 214 217 210 212 208 204 201 204 213 218 216 209 204 204 206 209 213 210 210 201 211 220 223 221 219 219 225 212 242 232 258 260 230 225
173 201 197 220 219 244 355 251 86 107 221 261 125 265 263 258 250 251 254 246 240 231 236 254 258 250 235 231 236 243 244 255 248 248 227 213 210 208 206 209 209 212 212 212 216 215 216 219 220 219 219 216 213 210 208 212 213 216 215 218 216 221 219 222 219 213 202 209 208 205 205 212 213 216 215 206 205 208 208 211 213 210 208 211 221 226 228 229 231 230 230 239 238 226 259 241 220
187 183 188 216 182 175 225 177 135 154 279 307 331 289 273 265 255 248 247 245 232 225 223 237 238 247 247 239 236 237 247 250 246 243 226 208 205 206 208 210 211 206 211 213 211 212 212 216 216 216 218 217 215 212 208 213 211 214 217 222 221 222 225 221 222 218 207 208 211 203 209 214 216 216 212 213 211 222 211 209 220 210 218 223 222 227 230 231 230 234 234 231 237 238 225 231 220
205 208 211 215 168 204 302 122 150 81 220 264 279 275 269 251 247 250 229 227 231 231 236 235 239 237 253 272 283 239 240 240 248 256 242 203 196 206 207 210 205 208 211 211 206 204 207 211 211 211 212 211 210 210 208 214 211 210 217 222 229 230 227 218 218 217 218 214 209 207 212 212 215 214 211 211 209 219 218 211 223 225 227 222 222 226 233 231 229 231 226 219 210 227 232 225 190
202 225 224 223 195 181 127 120 172 216 233 169 294 280 257 231 235 249 259 178 230 208 224 229 233 219 224 247 246 241 232 240 245 248 250 210 209 214 211 209 206 212 214 216 211 207 208 211 211 210 211 210 209 209 208 211 211 211 210 214 214 216 221 212 210 213 209 210 211 205 207 205 208 208 208 213 213 213 224 217 218 223 227 227 218 219 231 228 228 228 219 218 219 224 240 229 194
194 218 204 224 180 161 155 169 184 234 243 113 312 237 270 263 246 240 239 236 251 237 223 245 246 232 211 224 233 238 229 236 231 247 255 248 229 210 213 211 213 217 222 216 214 218 216 217 212 207 207 208 208 209 204 208 214 216 215 213 212 209 215 218 215 212 215 218 218 216 207 198 202 207 211 208 213 214 220 225 214 217 221 225 217 205 216 225 227 226 224 219 220 224 222 221 203
213 82 162 154 154 165 174 190 219 277 4 296 203 262 272 287 273 237 229 249 251 249 246 229 229 247 241 225 229 228 228 227 237 232 244 244 237 224 227 219 212 218 218 204 212 215 217 218 215 212 211 212 209 207 208 211 216 215 218 219 220 224 223 227 217 218 220 221 213 215 205 198 201 209 213 215 218 217 214 224 223 217 213 206 209 211 215 217 220 216 221 225 228 215 198 208 190
116 114 142 163 174 151 147 205 173 352 348 257 166 150 265 229 253 95 246 240 246 247 246 246 229 227 231 229 232 234 231 225 217 226 237 233 228 225 229 232 224 226 215 210 216 218 217 219 219 219 219 216 214 203 202 206 215 215 216 220 223 224 228 229 228 223 221 215 213 205 201 202 203 207 212 214 213 218 210 215 219 220 209 201 199 216 205 217 221 215 203 203 205 202 199 205 192
30 106 75 82 87 95 150 152 246 220 241 249 186 184 244 269 233 240 161 229 250 248 241 238 234 223 216 222 227 234 238 241 236 242 249 243 237 238 234 244 243 230 217 219 221 217 216 215 217 217 220 216 212 208 203 208 213 218 218 217 221 221 220 225 224 222 215 204 212 209 205 205 201 205 208 210 209 210 211 210 216 215 207 200 195 206 187 206 210 211 202 192 187 179 177 188 206
127 132 123 111 95 112 98 59 322 272 250 247 205 185 226 292 183 234 206 216 229 248 248 251 250 237 228 219 224 242 257 244 239 243 249 254 251 238 229 245 250 250 226 225 223 218 214 213 216 219 222 220 215 210 209 216 220 216 220 218 217 219 218 217 216 218 207 205 208 209 206 208 201 199 202 208 207 206 209 207 212 210 198 197 192 201 194 196 195 195 189 180 177 180 181 179 194
144 144 149 138 100 140 201 194 260 244 253 93 2 181 194 234 186 241 239 241 238 238 246 251 243 242 232 190 203 222 224 222 226 238 250 236 240 234 202 231 244 251 246 232 233 222 216 213 213 218 220 217 215 209 211 219 218 218 222 223 220 220 217 215 214 213 204 204 205 207 200 198 199 199 203 205 207 206 206 207 206 208 204 198 193 189 189 190 183 185 180 177 177 182 181 177 184
170 146 160 151 140 140 201 187 220 216 239 75 51 136 217 238 242 289 261 243 241 237 245 250 254 256 236 177 196 242 246 235 220 219 231 242 228 235 226 207 201 230 236 240 236 229 226 222 216 217 220 212 211 205 215 221 219 220 220 222 222 220 219 219 218 220 214 210 206 206 196 196 193 198 200 202 207 204 201 200 195 192 188 196 189 184 184 180 174 177 178 176 173 171 176 180 183
171 169 168 159 148 187 212 195 291 300 244 181 72 96 259 298 279 229 241 243 236 247 237 233 253 262 266 254 254 254 248 253 263 276 263 245 242 230 234 246 221 210 227 234 230 224 226 224 221 221 225 213 207 208 216 223 223 224 222 223 223 220 220 221 223 222 218 212 207 207 198 196 196 199 199 203 205 201 196 200 193 193 194 186 182 180 177 175 174 175 174 178 179 180 174 177 181
187 182 186 229 175 169 194 176 204 214 341 109 235 217 249 177 90 12 261 256 271 287 270 260 249 260 268 289 279 266 259 251 245 257 258 258 250 249 248 228 232 236 236 233 225 224 224 224 220 221 222 215 206 211 218 222 224 224 225 224 224 223 224 222 224 224 220 214 211 209 203 202 203 203 203 207 204 196 198 199 193 189 182 182 177 172 172 170 167 165 178 176 180 181 170 163 162
121 326 8 259 212 331 227 110 253 121 174 175 186 228 283 226 358 282 241 254 262 255 252 245 260 251 224 247 252 253 251 245 218 242 257 265 253 253 251 244 225 225 228 230 227 220 220 223 218 219 219 217 209 210 218 221 222 223 224 224 224 225 225 225 226 215 217 212 210 208 207 205 206 205 208 202 196 191 193 191 185 186 180 182 181 177 176 180 172 165 161 170 170 173 167 153 146
179 143 210 180 34 102 116 106 49 51 323 256 154 265 257 270 264 250 254 242 248 241 235 227 240 246 221 236 230 241 247 248 229 233 240 248 241 223 229 241 236 220 220 218 209 207 216 220 218 218 218 216 212 209 217 219 222 223 225 225 225 223 221 220 223 210 205 207 211 208 212 211 209 208 199 190 185 186 184 182 179 182 178 179 175 175 170 161 161 164 161 156 168 168 161 164 167
118 210 195 85 70 355 232 173 118 221 242 257 137 236 256 212 284 91 247 238 250 262 264 252 218 232 242 240 226 227 234 238 242 246 241 243 244 238 225 223 232 232 225 216 209 197 214 225 229 229 226 222 219 217 220 223 223 225 225 224 224 219 220 219 218 216 200 208 209 211 212 208 206 202 194 182 183 179 181 178 179 174 176 173 170 174 164 162 155 159 169 168 155 156 150 131 137
202 198 139 170 196 211 200 168 191 177 232 264 223 259 271 234 243 205 201 201 219 230 235 219 211 218 233 241 249 246 247 258 250 239 234 224 219 209 198 214 209 230 235 236 157 184 203 216 225 241 242 240 238 231 231 233 230 227 226 223 220 217 218 219 216 213 210 210 205 204 203 203 198 191 177 170 179 180 179 180 176 171 172 170 172 176 158 158 163 140 161 162 154 158 142 149 147
28 124 182 356 333 221 161 210 26 190 234 162 265 121 263 186 226 211 217 211 206 211 229 235 238 220 221 240 245 248 250 242 257 260 257 249 237 203 177 184 197 211 221 225 219 204 207 212 224 236 262 280 277 254 238 237 234 233 232 229 224 218 213 210 207 204 205 206 207 201 202 199 195 182 186 177 178 178 175 175 175 173 171 171 172 171 167 157 154 157 151 156 158 154 151 145 140
166 179 185 183 214 340 350 29 204 211 205 209 301 284 243 200 200 195 214 219 221 235 250 242 237 250 232 234 236 232 232 250 254 267 280 289 284 201 179 175 189 207 215 219 210 210 207 200 214 223 239 244 244 243 239 238 235 234 231 228 223 216 216 211 211 210 208 207 208 205 205 201 178 188 177 180 181 179 177 177 172 172 171 167 164 162 161 154 161 128 146 147 154 153 156 139 132
177 181 191 187 158 168 174 214 97 234 195 222 211 260 275 188 158 200 221 229 239 244 244 247 144 204 230 233 231 228 243 233 232 229 236 271 266 248 203 182 191 200 203 199 199 202 201 202 202 200 212 232 243 244 240 250 247 249 241 237 233 222 217 215 214 210 213 208 206 203 198 187 186 185 181 181 180 178 177 176 173 174 171 168 164 164 159 157 133 149 144 157 159 164 158 150 141